Location: Sternwarte ZA, Rosenfeld-Brittheim
(48.2889°N, 8.6789°E)
Time: 05:21:19
(UTC+02:00)

ISS - Pass Details

Date: 29 March 2020
Orbit: 417 x 423 km, 51.6° (Epoch: 29 March)

Event Time Altitude Azimuth Distance (km) Brightness Sun altitude
Rises 21:42:26 0° 290° (WNW) 2,362 1.7 -18.3°
Reaches altitude 10° 21:44:32 10° 293° (WNW) 1,498 0.3 -18.6°
Maximum altitude 21:47:53 70° 17° (NNE) 448 -3.7 -19.1°
Enters shadow 21:48:12 64° 59° (ENE) 466 -3.8 -19.1°
